COSMOS 1711 (GLONASS)

Satellite information

Favourite Embed

Satellite Type and Status

PAYLOADIN ORBIT

Key statistics

Satellite COSMOS 1711 (GLONASS) at a glance.

Uptime

14600

Days in orbit

Revolutions

≈ 2.1

Per day

Orbit

MEO

Medium Earth Orbit

Inclination

66.2

Latest

Satellite identification and parameters

Extended collection of information and parameters for COSMOS 1711 (GLONASS).

Object identification

Identified? True

Debris? False

Object name: COSMOS 1711 (GLONASS)

International designator: 1985-118B

Object number (NORAD): 16397

Object ID (CCSDS): 16397

Country: COMMONWEALTH OF INDEPENDENT STATES (CIS)

Current information (Y/N): Y

RCS size: MEDIUM

Orbital parameters

Period: 675.735 minutes

Inclination: 66.1531 deg

SMA: 25508.088 km

Apoapsis: 19155.321 km

Periapsis: 19104.585 km

RAAN: 330.7258 deg

Eccentricy: 0.0009945

Argument of periapsis: 198.2343 deg

Mean anomaly: 3.1466 deg

Mean motion: 2.131012 rev/day

Mean motion (dot): -0.00000052 rev/day2

B* drag term: 0.0 1/REarth

Two-line elements (TLE)

Creation date: Dec. 9, 2025, 11:46 p.m.

Reference frame: TEME

Reference center: EARTH

Epoch: Dec. 9, 2025, 2:29 p.m. UTC

TLE line 0: 0 COSMOS 1711 (GLONASS)

TLE line 1: 1 16397U 85118B 25343.60371270 -.00000052 00000-0 00000+0 0 9999

TLE line 2: 2 16397 66.1531 330.7258 0009945 198.2343 3.1466 2.13101200310717

Live tracking on map

Real-time ground track for satellite COSMOS 1711 (GLONASS).

In-orbit conjunctions

A list of the most updated potential collisions computed for object COSMOS 1711 (GLONASS).

Target Orbit TCA Probability of collision Miss distance Type
SL-12 R/B(2) MEO 2025-10-25 21:51:29 TBA 3402.0 (m) ROCKET BODY
COSMOS 2289 (GLONASS) MEO 2025-09-17 14:02:11 TBA 4432.0 (m) PAYLOAD
COSMOS 2289 (GLONASS) MEO 2025-09-17 02:46:26 TBA 2976.0 (m) PAYLOAD
COSMOS 2289 (GLONASS) MEO 2025-09-16 15:30:42 TBA 2855.0 (m) PAYLOAD
COSMOS 2289 (GLONASS) MEO 2025-09-16 04:14:58 TBA 4225.0 (m) PAYLOAD

Associated space launch

GLONASS navigation satellites

COSMOS 1711 (GLONASS) was lifted into orbit during the mission ‘Proton | Uragan 12 & 13’, on board a Proton space rocket.

The launch took place on Dec. 24, 1985, 9:43 p.m. from 200/39 (200L).

For more information about the launch, click the button.

Launch to space Proton | Uragan 12 & 13
Proton | Uragan 12 & 13

Agency: N/A

Status: Launch Successful

Launch date: Dec. 24, 1985, 9:43 p.m. UTC

Rocket: Proton

Launch pad: 200/39 (200L)

Location: Baikonur Cosmodrome, Republic of Kazakhstan

...

Latest news about this satellite

There are no fresh news available about this satellite. Check back as we update our databases every day.


Newsletter sign-up

Weekly statistics, charts and insights to help you stay on top of the space industry.